| Känerkinden Datum - Zeit | Temperatur | Taupunkt | Feuchte | Solar | Wind | aus Richtung | Windböen | Luftdruck (QFF) | Regen | Regenstärke | Trend |
| 02.09.2026 - 00.00Uhr | 15.0 °C | 10.2 °C | 73 % | 0.0 W/m² | 0.0 km/h | Osten | 0.0 km/h | 1019.7 hPa | 0.0 mm | 0.0 mm/h | wechselhaft |
| 02.09.2026 - 00.05Uhr | 14.9 °C | 10.1 °C | 73 % | 0.0 W/m² | 0.0 km/h | Osten | 0.0 km/h | 1019.6 hPa | 0.0 mm | 0.0 mm/h | wechselhaft |
| 02.09.2026 - 00.10Uhr | 14.9 °C | 10.1 °C | 73 % | 0.0 W/m² | 0.0 km/h | Osten | 0.0 km/h | 1019.6 hPa | 0.0 mm | 0.0 mm/h | wechselhaft |
| 02.09.2026 - 00.15Uhr | 15.1 °C | 10.3 °C | 73 % | 0.0 W/m² | 0.0 km/h | Osten | 0.0 km/h | 1019.7 hPa | 0.0 mm | 0.0 mm/h | wechselhaft |
| 02.09.2026 - 00.20Uhr | 15.1 °C | 10.3 °C | 73 % | 0.0 W/m² | 0.0 km/h | Osten | 0.0 km/h | 1019.7 hPa | 0.0 mm | 0.0 mm/h | wechselhaft |
| 02.09.2026 - 00.25Uhr | 15.1 °C | 10.2 °C | 73 % | 0.0 W/m² | 0.0 km/h | Osten | 0.0 km/h | 1019.8 hPa | 0.0 mm | 0.0 mm/h | wechselhaft |
| 02.09.2026 - 00.30Uhr | 14.9 °C | 10.1 °C | 73 % | 0.0 W/m² | 0.0 km/h | Osten | 0.0 km/h | 1019.7 hPa | 0.0 mm | 0.0 mm/h | wechselhaft |
| 02.09.2026 - 00.35Uhr | 14.9 °C | 10.2 °C | 73 % | 0.0 W/m² | 0.0 km/h | Osten | 0.0 km/h | 1019.8 hPa | 0.0 mm | 0.0 mm/h | wechselhaft |
| 02.09.2026 - 00.40Uhr | 14.8 °C | 10.2 °C | 74 % | 0.0 W/m² | 0.0 km/h | Osten | 0.0 km/h | 1019.8 hPa | 0.0 mm | 0.0 mm/h | wechselhaft |
| 02.09.2026 - 00.45Uhr | 14.4 °C | 10.1 °C | 76 % | 0.0 W/m² | 0.0 km/h | Osten | 0.0 km/h | 1019.8 hPa | 0.0 mm | 0.0 mm/h | wechselhaft |
| 02.09.2026 - 00.50Uhr | 14.1 °C | 10.1 °C | 77 % | 0.0 W/m² | 0.0 km/h | Osten | 0.0 km/h | 1019.8 hPa | 0.0 mm | 0.0 mm/h | wechselhaft |
| 02.09.2026 - 00.55Uhr | 14.0 °C | 10.0 °C | 77 % | 0.0 W/m² | 0.0 km/h | Osten | 0.0 km/h | 1019.8 hPa | 0.0 mm | 0.0 mm/h | wechselhaft |
| 02.09.2026 - 01.00Uhr | 14.2 °C | 10.1 °C | 76 % | 0.0 W/m² | 0.0 km/h | Osten | 0.0 km/h | 1019.9 hPa | 0.0 mm | 0.0 mm/h | wechselhaft |
| 02.09.2026 - 01.05Uhr | 14.4 °C | 10.1 °C | 75 % | 0.0 W/m² | 0.0 km/h | Osten | 0.0 km/h | 1019.9 hPa | 0.0 mm | 0.0 mm/h | wechselhaft |
| 02.09.2026 - 01.10Uhr | 14.3 °C | 10.1 °C | 76 % | 0.0 W/m² | 0.0 km/h | Osten | 0.0 km/h | 1019.9 hPa | 0.0 mm | 0.0 mm/h | wechselhaft |
| 02.09.2026 - 01.15Uhr | 14.4 °C | 10.0 °C | 75 % | 0.0 W/m² | 0.0 km/h | Osten | 0.0 km/h | 1019.9 hPa | 0.0 mm | 0.0 mm/h | wechselhaft |
| 02.09.2026 - 01.20Uhr | 14.7 °C | 10.1 °C | 74 % | 0.0 W/m² | 0.0 km/h | Osten | 0.0 km/h | 1019.8 hPa | 0.0 mm | 0.0 mm/h | wechselhaft |
| 02.09.2026 - 01.25Uhr | 14.6 °C | 10.1 °C | 74 % | 0.0 W/m² | 0.0 km/h | Osten | 0.0 km/h | 1019.8 hPa | 0.0 mm | 0.0 mm/h | wechselhaft |
| 02.09.2026 - 01.30Uhr | 14.4 °C | 10.0 °C | 75 % | 0.0 W/m² | 0.0 km/h | Osten | 0.0 km/h | 1019.8 hPa | 0.0 mm | 0.0 mm/h | wechselhaft |
| 02.09.2026 - 01.35Uhr | 14.2 °C | 10.0 °C | 76 % | 0.0 W/m² | 0.0 km/h | Osten | 0.0 km/h | 1019.8 hPa | 0.0 mm | 0.0 mm/h | wechselhaft |
| 02.09.2026 - 01.40Uhr | 14.1 °C | 9.9 °C | 76 % | 0.0 W/m² | 0.0 km/h | Osten | 0.0 km/h | 1019.8 hPa | 0.0 mm | 0.0 mm/h | wechselhaft |
| 02.09.2026 - 01.45Uhr | 14.1 °C | 9.9 °C | 76 % | 0.0 W/m² | 0.0 km/h | Osten | 0.0 km/h | 1019.9 hPa | 0.0 mm | 0.0 mm/h | wechselhaft |
| 02.09.2026 - 01.50Uhr | 14.1 °C | 9.9 °C | 76 % | 0.0 W/m² | 0.0 km/h | Osten | 0.0 km/h | 1019.9 hPa | 0.0 mm | 0.0 mm/h | wechselhaft |
| 02.09.2026 - 01.55Uhr | 14.2 °C | 9.9 °C | 76 % | 0.0 W/m² | 0.0 km/h | Osten | 0.0 km/h | 1019.9 hPa | 0.0 mm | 0.0 mm/h | wechselhaft |
| 02.09.2026 - 02.00Uhr | 14.2 °C | 9.9 °C | 76 % | 0.0 W/m² | 0.0 km/h | Osten | 0.0 km/h | 1019.9 hPa | 0.0 mm | 0.0 mm/h | wechselhaft |
| 02.09.2026 - 02.05Uhr | 14.0 °C | 9.8 °C | 76 % | 0.0 W/m² | 0.0 km/h | Osten | 0.0 km/h | 1019.8 hPa | 0.0 mm | 0.0 mm/h | wechselhaft |
| 02.09.2026 - 02.10Uhr | 13.9 °C | 9.8 °C | 76 % | 0.0 W/m² | 0.0 km/h | Osten | 0.0 km/h | 1019.9 hPa | 0.0 mm | 0.0 mm/h | wechselhaft |
| 02.09.2026 - 02.15Uhr | 13.9 °C | 9.8 °C | 76 % | 0.0 W/m² | 0.0 km/h | Osten | 0.0 km/h | 1019.9 hPa | 0.0 mm | 0.0 mm/h | wechselhaft |
| 02.09.2026 - 02.20Uhr | 13.9 °C | 9.7 °C | 76 % | 0.0 W/m² | 0.0 km/h | Osten | 0.0 km/h | 1019.9 hPa | 0.0 mm | 0.0 mm/h | wechselhaft |
| 02.09.2026 - 02.25Uhr | 13.9 °C | 9.7 °C | 76 % | 0.0 W/m² | 0.0 km/h | Osten | 0.0 km/h | 1019.9 hPa | 0.0 mm | 0.0 mm/h | wechselhaft |
| 02.09.2026 - 02.30Uhr | 14.0 °C | 9.8 °C | 76 % | 0.0 W/m² | 0.0 km/h | Osten | 0.0 km/h | 1019.8 hPa | 0.0 mm | 0.0 mm/h | wechselhaft |
| 02.09.2026 - 02.35Uhr | 13.9 °C | 9.8 °C | 76 % | 0.0 W/m² | 0.0 km/h | Osten | 0.0 km/h | 1019.8 hPa | 0.0 mm | 0.0 mm/h | wechselhaft |
| 02.09.2026 - 02.40Uhr | 13.8 °C | 9.6 °C | 76 % | 0.0 W/m² | 0.0 km/h | Osten | 0.0 km/h | 1019.8 hPa | 0.0 mm | 0.0 mm/h | wechselhaft |
| 02.09.2026 - 02.45Uhr | 13.8 °C | 9.6 °C | 76 % | 0.0 W/m² | 0.0 km/h | Osten | 0.0 km/h | 1019.7 hPa | 0.0 mm | 0.0 mm/h | wechselhaft |
| 02.09.2026 - 02.50Uhr | 13.8 °C | 9.6 °C | 76 % | 0.0 W/m² | 0.0 km/h | Osten | 0.0 km/h | 1019.7 hPa | 0.0 mm | 0.0 mm/h | wechselhaft |
| 02.09.2026 - 02.55Uhr | 13.7 °C | 9.6 °C | 77 % | 0.0 W/m² | 0.0 km/h | Osten | 0.0 km/h | 1019.7 hPa | 0.0 mm | 0.0 mm/h | wechselhaft |
| 02.09.2026 - 03.00Uhr | 13.7 °C | 9.6 °C | 76 % | 0.0 W/m² | 0.0 km/h | Osten | 0.0 km/h | 1019.6 hPa | 0.0 mm | 0.0 mm/h | wechselhaft |
| 02.09.2026 - 03.05Uhr | 13.8 °C | 9.7 °C | 76 % | 0.0 W/m² | 0.0 km/h | Osten | 0.0 km/h | 1019.6 hPa | 0.0 mm | 0.0 mm/h | wechselhaft |
| 02.09.2026 - 03.10Uhr | 13.8 °C | 9.6 °C | 76 % | 0.0 W/m² | 0.0 km/h | Osten | 0.0 km/h | 1019.6 hPa | 0.0 mm | 0.0 mm/h | wechselhaft |